Location: Curupao
(10.4996°N, 66.6442°W)
Time: 22:48:25
(UTC+00:00)

H-2A R/B - Pass Details

Date: 23 May 2024
Orbit: 732 x 832 km, 98.2° (Epoch: 25 June)

Event Time Altitude Azimuth Distance (km) Brightness Sun altitude
Rises 07:29:59 0° 40° (NE) 3,364 6.3 -34.5°
Reaches altitude 10° 07:33:10 10° 59° (ENE) 2,425 5.4 -33.9°
Maximum altitude 07:36:38 17° 99° (E) 1,941 4.5 -33.2°
Enters shadow 07:39:41 11° 137° (SE) 2,309 4.5 -32.6°
